This demonstration page uses our WeatherBlox Daily Observations layout. Learn more.

Left ArrowRight Arrow

41.12389, -100.76542

Hourly Observations for July 5, 2016

Temp ( °F °C ) Dew Point ( °F °C ) Humidity (%) Winds ( mph kmh ) Pressure ( in mb ) Visibility ( mi km ) Precip ( " mm )
12:53 am 00:53 Clear 71 21.7 69 20.6 94 94 E 6 9 29.76 1008 10 16 0.00 0.00
1:53 am 01:53 Clear 71 21.7 67 19.4 87 87 SSE 7 11 29.77 1008 10 16 0.00 0.00
2:53 am 02:53 Clear 69 20.6 67 19.4 93 93 NNW 5 7 29.75 1007 10 16 0.00 0.00
3:53 am 03:53 Clear 71 21.7 68 20 90 90 SW 5 7 29.73 1007 10 16 0.00 0.00
4:53 am 04:53 Clear 68 20 67 19.4 96 96 SE 3 6 29.70 1006 8 13 0.00 0.00
5:53 am 05:53 Clear 66 18.9 64 17.8 93 93 N 7 11 29.72 1006 7 11 0.00 0.00
6:53 am 06:53 Sunny with Mist and Fog 66 18.9 65 18.3 96 96 Calm 29.73 1007 3 5 0.00 0.00
7:53 am 07:53 undefined 70 21.1 66 18.9 87 87 S 3 6 29.74 1007 10 16 0.00 0.00
8:53 am 08:53 Sunny 74 23.3 63 17.2 69 69 W 8 13 29.75 1007 10 16 0.00 0.00
9:53 am 09:53 Sunny 79 26.1 63 17.2 58 58 Calm 29.74 1007 10 16 0.00 0.00
10:53 am 10:53 Sunny 80 26.7 64 17.8 58 58 Calm 29.73 1007 10 16 0.00 0.00
11:53 am 11:53 Sunny 86 30 62 16.7 45 45 W 5 7 29.73 1007 10 16 0.00 0.00
12:53 pm 12:53 Partly Cloudy 83 28.3 63 17.2 51 51 NNW 3 6 29.75 1007 8 13 0.00 0.00
1:53 pm 13:53 Sunny 85 29.4 63 17.2 48 48 W 7 11 29.76 1008 10 16 0.00 0.03
2:53 pm 14:53 Sunny 85 29.4 66 18.9 53 53 SSW 5 7 29.76 1008 10 16 0.00 0.00
3:53 pm 15:53 Mostly Cloudy with Light Rain 80 26.7 70 21.1 71 71 Calm 29.75 1008 9 14 0.01 0.25
4:53 pm 16:53 Sunny 91 32.8 61 16.1 37 37 ENE 6 9 29.72 1006 10 16 0.00 0.03
5:53 pm 17:53 Sunny 87 30.6 64 17.8 46 46 E 6 9 29.74 1007 10 16 0.00 0.00
6:53 pm 18:53 Sunny 83 28.3 67 19.4 59 59 E 6 9 29.73 1007 10 16 0.00 0.00
7:53 pm 19:53 Sunny 81 27.2 70 21.1 69 69 Calm 29.74 1007 10 16 0.00 0.00
8:53 pm 20:53 Sunny 82 27.8 63 17.2 53 53 SSE 5 7 29.75 1008 10 16 0.00 0.00
9:53 pm 21:53 Clear 74 23.3 66 18.9 76 76 W 7 11 29.77 1008 10 16 0.00 0.00
10:53 pm 22:53 Clear 73 22.8 58 14.4 59 59 N 18 30 29.80 1009 10 16 0.00 0.00
11:53 pm 23:53 undefined 72 22.2 58 14.4 61 61 ESE 5 7 29.77 1008 10 16 0.00 0.00

Powered by AerisWeather